Regional Weather Roundup
Issued by NWS Grand Forks, ND

Home | Current Version | Previous Version | Text Only | Print | Product List | Glossary Off
Versions: 1 2 3 4 5 6 7 8 9 10 11 12 13 14 15 16 17 18 19 20 21 22 23 24 25 26 27 28 29 30 31 32 33 34 35 36 37 38 39 40 41 42 43 44 45 46 47 48 49 50

000
ASUS43 KFGF 290631
RWRFGF
PRAIRIE TO PINES  WEATHER ROUNDUP
NATIONAL WEATHER SERVICE EASTERN NORTH DAKOTA/GRAND FORKS ND
100 AM CDT FRI APR 29 2016

 **SATELLITE DATA USED TO AUGMENT SKY COVER AT AUTOMATED STATIONS**
 *****  WEATHER ACROSS EASTERN NORTH DAKOTA  *****

CITY           SKY/WX    TMP DP  RH WIND       PRES   REMARKS
GRAND FORKS    CLOUDY    34  27  75 N6        30.17R
6HR MIN TEMP:  34; 6HR MAX TEMP:  56;

GRAND FRKS AFB CLOUDY    37  27  69 N7        30.17S
DEVILS LAKE    CLOUDY    41  23  48 NE7       30.19S
6HR MIN TEMP:  39; 6HR MAX TEMP:  54;

FARGO          CLOUDY    42  28  57 N6        30.13S
WAHPETON ARPT  CLOUDY    41  34  75 SW6       30.15S
$$

 ***** WEATHER ACROSS CENTRAL AND WESTERN NORTH DAKOTA  *****

CITY           SKY/WX    TMP DP  RH WIND       PRES   REMARKS
BISMARCK       CLOUDY    44  31  60 NE9       30.16S
6HR MIN TEMP:  44; 6HR MAX TEMP:  54;

MINOT          PTCLDY    45  20  36 NE7       30.19R
6HR MIN TEMP:  42; 6HR MAX TEMP:  59;

JAMESTOWN      CLOUDY    39  28  64 NE8       30.14S
6HR MIN TEMP:  39; 6HR MAX TEMP:  53;

MINOT AFB      PTCLDY    42  21  43 E8        30.19R
GARRISON         N/A     40  22  48 NE6       30.17S
WILLISTON      MOCLDY    42  28  57 NE5       30.17R
6HR MIN TEMP:  41; 6HR MAX TEMP:  56;

DICKINSON      CLOUDY    40  27  59 E6        30.12S
6HR MIN TEMP:  40; 6HR MAX TEMP:  50;

HETTINGER      CLOUDY    38  35  89 W3        30.14S
6HR MIN TEMP:  38; 6HR MAX TEMP:  47;

$$

 *****  OTHER AIRPORT OBSERVATIONS IN OUR AREA  *****

CITY           SKY/WX    TMP DP  RH WIND       PRES   REMARKS
WALHALLA       FAIR      37  25  60 NW6       30.22S
GRAFTON AIRPOR FAIR      39  28  65 N6        30.21R
VALLEY CITY AR FAIR      41  27  56 NE5       30.17S
CANDO          FAIR      34  23  64 N6        30.22S
CAVALIER APRT  FAIR      39  27  60 NW5       30.21R
GWINNER        MOCLDY    41  37  87 W9        30.14S
SHEYENNE NWR     N/A     39  35  87 CALM      29.95S
ROLLA          FAIR      32  18  55 N8        30.22S WCI  25
 ***** THE ABOVE OBSERVATIONS ARE NON NWS ARE NOT QUALITY
       CONTROLLED AND MAY MIS-REPORT RAIN FOR SNOW...
$$

  *****  WEATHER ACROSS NORTHERN MINNESOTA  *****

CITY           SKY/WX    TMP DP  RH WIND       PRES   REMARKS
FLAG ISLAND    CLOUDY    41  37  87 N3        30.19S
WARROAD        CLOUDY    41  32  70 N6        30.20R
ROSEAU         CLOUDY    39  30  70 NE5       30.19R
HALLOCK        CLOUDY    39  25  56 N6        30.19S
THF RVR FALLS  PTCLDY    43  23  45 NE9       30.18S
6HR MIN TEMP:  43; 6HR MAX TEMP:  55;

BAUDETTE       CLOUDY    41  28  60 NE6       30.17S
6HR MIN TEMP:  41; 6HR MAX TEMP:  52;

WASKISH        PTCLDY    41  30  65 NE6       30.16S
CROOKSTON      PTCLDY    41  25  52 NE8       30.17S
STEPHEN NDAWN    N/A     34  27  75 N3          N/A
GREENBUSH NDAW   N/A     37  32  81 NE2         N/A
$$
  *****  WEATHER ACROSS CENTRAL AND WEST MINNESOTA  *****

CITY           SKY/WX    TMP DP  RH WIND       PRES   REMARKS
FOSSTON        CLOUDY    39  28  65 NE6       30.16R
BEMIDJI        PTCLDY    41  28  60 NE3       30.14S
PARK RAPIDS    CLOUDY    39  28  64 SE7       30.14R
6HR MIN TEMP:  37; 6HR MAX TEMP:  54;

ELBOW LAKE     FAIR      40  38  95 CALM      30.16R
WADENA         CLOUDY    37  36  93 CALM      30.15S
DETROIT LAKES  CLOUDY    41  36  81 SW6       30.15S
MOORHEAD       CLOUDY    43  37  81 SE5       30.15R
FERGUS FALLS   PTCLDY    41  37  87 CALM      30.14S
MORRIS MN      PTCLDY    37  37 100 CALM      30.15R
STAPLES        CLOUDY    37  34  87 CALM      30.15S
$$
  *****  WEATHER ELSEWHERE ACROSS MINNESOTA  *****

CITY           SKY/WX    TMP DP  RH WIND       PRES   REMARKS
DULUTH         CLOUDY    32  25  75 N3        30.13S
6HR MIN TEMP:  31; 6HR MAX TEMP:  40;

INTRNTL FALLS  CLOUDY    40  30  67 NE3       30.16R
6HR MIN TEMP:  40; 6HR MAX TEMP:  53;

ELY            MOCLDY    30  27  86 CALM      30.15R
CLOQUET        CLOUDY    28  25  86 CALM      30.14R
WHEATON        CLOUDY    43  39  87 CALM      30.17S
BRAINERD       CLOUDY    40  24  53 CALM      30.15R
6HR MIN TEMP:  40; 6HR MAX TEMP:  51;

HIBBING        CLOUDY    28  24  85 CALM      30.14S
6HR MIN TEMP:  28; 6HR MAX TEMP:  52;

ALEXANDRIA     PTCLDY    39  37  92 CALM      30.16R
6HR MIN TEMP:  39; 6HR MAX TEMP:  45;

SAINT CLOUD    CLOUDY    39  38  96 NW6       30.14S
6HR MIN TEMP:  39; 6HR MAX TEMP:  42; 6HR PCP:  0.03;

MINNEAPOLIS    CLOUDY    38  35  89 SE5       30.15R
6HR MIN TEMP:  38; 6HR MAX TEMP:  41; 6HR PCP:  0.22;

$$

  *****  WEATHER ACROSS SOUTH DAKOTA  *****

CITY           SKY/WX    TMP DP  RH WIND       PRES   REMARKS
SIOUX FALLS    CLOUDY    39  36  89 CALM      30.13R
6HR MIN TEMP:  38; 6HR MAX TEMP:  41; 6HR PCP: TRACE;

BROOKINGS      CLOUDY    38  36  92 E7        30.12R
WATERTOWN      CLOUDY    38  36  92 NE3       30.12R
6HR MIN TEMP:  38; 6HR MAX TEMP:  40;

HURON          MOCLDY    37  35  92 N6        30.14R
6HR MIN TEMP:  37; 6HR MAX TEMP:  41;

SISSETON         N/A     41  37  86 SW3       30.13F
ABERDEEN       MOCLDY    41  36  82 W5        30.16R
6HR MIN TEMP:  41; 6HR MAX TEMP:  51;

MITCHELL       CLOUDY    40  36  86 E3        30.15S
PIERRE         CLOUDY    43  36  76 CALM      30.14R
6HR MIN TEMP:  43; 6HR MAX TEMP:  47;

MOBRIDGE       CLOUDY    46  40  79 SE5       30.12R
RAPID CITY     CLOUDY    37  34  89 NE5       30.13S
6HR MIN TEMP:  36; 6HR MAX TEMP:  38;

$$

  *****  SOME WEATHER IN NEARBY STATES *****

CITY           SKY/WX    TMP DP  RH WIND       PRES   REMARKS
GLASGOW MT     MOCLDY    40  33  76 S7        30.13F
6HR MIN TEMP:  40; 6HR MAX TEMP:  54;

GREAT FALLS MT CLOUDY    38  33  82 E9        30.04F
6HR MIN TEMP:  38; 6HR MAX TEMP:  42;

CHEYENNE WY    CLOUDY    32  31  96 SE6       30.02S
6HR MIN TEMP:  32; 6HR MAX TEMP:  35; 6HR PCP:  0.01;

SCOTTSBLUFF NE MOCLDY    34  32  92 N6        30.09S
6HR MIN TEMP:  35; 6HR MAX TEMP:  38; 6HR PCP: TRACE;

OMAHA NE       CLOUDY    46  41  82 NW3       30.14R
6HR MIN TEMP:  46; 6HR MAX TEMP:  50;

DES MOINES IA  DRIZZLE   48  43  82 N12       30.08R
6HR MIN TEMP:  48; 6HR MAX TEMP:  51; 6HR PCP: TRACE;

DAVENPORT IA   CLOUDY    46  44  93 NE9       30.04R FOG
6HR MIN TEMP:  46; 6HR MAX TEMP:  51; 6HR PCP: TRACE;

CHICAGO IL     CLOUDY    42  42 100 N7        30.01R FOG
6HR MIN TEMP:  42; 6HR MAX TEMP:  44; 6HR PCP:  0.01;

EAU CLAIRE WI  CLOUDY    39  38  96 CALM      30.11S
6HR MIN TEMP:  39; 6HR MAX TEMP:  41; 6HR PCP:  0.28;

LA CROSSE WI   CLOUDY    40  36  86 NW3       30.11R
6HR MIN TEMP:  40; 6HR MAX TEMP:  43; 6HR PCP: TRACE;

$$

  *****  SOME NATIONAL WEATHER *****

CITY           SKY/WX    TMP DP  RH WIND       PRES   REMARKS
LA GUARDIA NY  CLOUDY    50  37  61 CALM      30.05F
6HR MIN TEMP:  49; 6HR MAX TEMP:  51; 6HR PCP: TRACE;

RALEIGH NC     FOG       66  65  96 NE9       29.92R VSB 1
6HR MIN TEMP:  64; 6HR MAX TEMP:  69; 6HR PCP:  0.03;

ATLANTA GA     CLEAR     69  57  65 W6        29.97S
6HR MIN TEMP:  69; 6HR MAX TEMP:  80;

NEW ORLEANS LA PTCLDY    74  69  85 S7        29.92F
6HR MIN TEMP:  74; 6HR MAX TEMP:  80;

OKLAHOMA CITY  MOCLDY    61  51  70 NE13      29.89R
6HR MIN TEMP:  61; 6HR MAX TEMP:  72;

ALBUQUERQUE NM CLOUDY    59  20  22 NW16G23   29.79R
6HR MIN TEMP:  59; 6HR MAX TEMP:  71;

SALT LAKE CITY CLOUDY    48  34  58 W5        29.83S
6HR MIN TEMP:  48; 6HR MAX TEMP:  55;

LOS ANGELES CA MOCLDY    58  51  78 N3        29.96R
6HR MIN TEMP:  58; 6HR MAX TEMP:  64;

BOISE ID       MOCLDY   C1F1C2F2C3F3C4F4C5F5C6F6C7F7C8F8C9F9CaFaCbFbCcFcCd!


USA.gov is the U.S. government's official web portal to all federal, state and local government web resources and services.